Weather History for Thermopolis, WY

Change the Weather History Date:

Monday, November 12, 2012

  Actual Average (KWRL) Record (KWRL)
Temperature  
Mean Temperature 20 °F 33 °F  
Max Temperature 28 °F 47 °F 72 °F (1989)
Min Temperature 12 °F 19 °F -21 °F (2014)
Degree Days  
Heating Degree Days 45 32  
Month to date heating degree days 349  
Since 1 July heating degree days 1211  
Cooling Degree Days 0 0  
Month to date cooling degree days 0  
Year to date cooling degree days 535  
Moisture  
Dew Point 10 °F    
Average Humidity 69    
Maximum Humidity 85    
Minimum Humidity 54    
Precipitation  
Precipitation 0.00 in 0.01 in 0.44 in (1980)
Month to date precipitation 0.15  
Year to date precipitation 7.14  
Sea Level Pressure  
Sea Level Pressure 30.20 in    
Wind  
Wind Speed 11 mph ()    
Max Wind Speed 22 mph    
Max Gust Speed 25 mph    
T = Trace of Precipitation, MM = Missing Value Source: Averaged Metar Reports

Daily Weather History Graph

Daily Weather History Graph

Search for Another Location

Airport:

Trip Planner

Search our weather history database for the weather conditions in past years. The results will help you decide how hot, cold, wet, or windy it might be!

Date:

Astronomy

Nov. 12, 2012 Rise Set
Actual Time 7:03 AM MST 4:50 PM MST
Civil Twilight 6:32 AM MST 5:21 PM MST
Nautical Twilight 5:58 AM MST 5:55 PM MST
Astronomical Twilight 5:24 AM MST 6:29 PM MST
Moon 5:31 AM MST (11/12) 3:58 PM MST (11/12)
Length of Visible Light 10h 48m
Length of Day
9h 47m
Waning Crescent, 2% of the Moon is Illuminated
Nov 12
Waning Crescent
Nov 13
New
Nov 20
First Quarter
Nov 28
Full
Dec 6
Last Quarter

Hourly Weather History & Observations

Time (MST) Temp. Windchill Dew Point Humidity Pressure Visibility Wind Dir Wind Speed Gust Speed Precip Events Conditions
12:15 AM 14.0 °F 3.9 °F 5.0 °F 67% 30.13 in - SE 6.9 mph - N/A   Clear
12:35 AM 14.0 °F 3.9 °F 6.8 °F 73% 30.14 in - ESE 6.9 mph - N/A   Clear
12:55 AM 14.0 °F 2.9 °F 5.0 °F 67% 30.13 in - ESE 8.1 mph - N/A   Clear
1:15 AM 12.2 °F -0.2 °F 5.0 °F 73% 30.13 in - ESE 9.2 mph - N/A   Clear
1:35 AM 12.2 °F -0.2 °F 5.0 °F 73% 30.13 in - SE 9.2 mph - N/A   Clear
1:55 AM 12.2 °F -1.8 °F 5.0 °F 73% 30.14 in - ESE 11.5 mph - N/A   Clear
2:15 AM 12.2 °F -2.5 °F 5.0 °F 73% 30.14 in - ESE 12.7 mph - N/A   Clear
2:35 AM 12.2 °F -3.1 °F 5.0 °F 73% 30.15 in - ESE 13.8 mph - N/A   Clear
2:55 AM 12.2 °F -3.1 °F 5.0 °F 73% 30.15 in - ESE 13.8 mph - N/A   Clear
3:15 AM 12.2 °F -2.5 °F 5.0 °F 73% 30.15 in - ESE 12.7 mph - N/A   Clear
3:35 AM 14.0 °F -0.2 °F 3.2 °F 62% 30.15 in - ESE 12.7 mph - N/A   Clear
3:55 AM 14.0 °F 1.2 °F 3.2 °F 62% 30.15 in - ESE 10.4 mph - N/A   Clear
4:15 AM 14.0 °F 0.5 °F 1.4 °F 57% 30.15 in - SE 11.5 mph - N/A   Clear
4:35 AM 14.0 °F 1.2 °F 3.2 °F 62% 30.16 in - ESE 10.4 mph - N/A   Clear
4:55 AM 14.0 °F 1.2 °F 3.2 °F 62% 30.16 in - SE 10.4 mph - N/A   Clear
5:15 AM 14.0 °F 2.0 °F 1.4 °F 57% 30.16 in - SE 9.2 mph - N/A   Clear
6:15 AM 12.2 °F 0.7 °F 5.0 °F 73% 30.18 in - SE 8.1 mph - N/A   Clear
6:35 AM 12.2 °F -1.8 °F 5.0 °F 73% 30.18 in - SE 11.5 mph - N/A   Clear
6:55 AM 12.2 °F -1.8 °F 5.0 °F 73% 30.18 in - SE 11.5 mph - N/A   Clear
7:15 AM 12.2 °F -1.0 °F 5.0 °F 73% 30.19 in - SE 10.4 mph - N/A   Clear
7:35 AM 12.2 °F -3.1 °F 5.0 °F 73% 30.19 in - SE 13.8 mph - N/A   Clear
7:55 AM 12.2 °F -3.7 °F 5.0 °F 73% 30.20 in - SE 15.0 mph - N/A   Clear
8:15 AM 12.2 °F -3.7 °F 5.0 °F 73% 30.20 in - SE 15.0 mph - N/A   Clear
8:35 AM 12.2 °F -4.3 °F 5.0 °F 73% 30.21 in - SE 16.1 mph - N/A   Clear
9:15 AM 12.2 °F -4.3 °F 6.8 °F 79% 30.22 in - SE 16.1 mph - N/A   Clear
9:35 AM 12.2 °F -1.8 °F 8.6 °F 85% 30.23 in - SE 11.5 mph 18.4 mph N/A   Clear
9:55 AM 14.0 °F -2.0 °F 8.6 °F 79% 30.23 in - SSE 16.1 mph - N/A   Clear
10:15 AM 15.8 °F 1.4 °F 8.6 °F 73% 30.23 in - SSE 13.8 mph 21.9 mph N/A   Clear
10:35 AM 15.8 °F -1.5 °F 8.6 °F 73% 30.23 in - SSE 20.7 mph 25.3 mph N/A   Clear
10:55 AM 17.6 °F 1.3 °F 8.6 °F 68% 30.24 in - SSE 19.6 mph 24.2 mph N/A   Clear
11:15 AM 17.6 °F 0.9 °F 10.4 °F 73% 30.24 in - SSE 20.7 mph - N/A   Clear
11:35 AM 19.4 °F 3.2 °F 8.6 °F 63% 30.25 in - SSE 20.7 mph - N/A   Scattered Clouds
11:55 AM 21.2 °F 7.3 °F 6.8 °F 54% 30.24 in - SE 16.1 mph 21.9 mph N/A   Mostly Cloudy
12:15 PM 19.4 °F 3.2 °F 8.6 °F 63% 30.23 in - SE 20.7 mph - N/A   Overcast
12:35 PM 19.4 °F 4.5 °F 10.4 °F 68% 30.23 in - SE 17.3 mph - N/A   Overcast
12:55 PM 19.4 °F 4.1 °F 10.4 °F 68% 30.23 in - SE 18.4 mph - N/A   Overcast
1:15 PM 19.4 °F 4.1 °F 10.4 °F 68% 30.22 in - SE 18.4 mph - N/A   Overcast
1:35 PM 21.2 °F 6.8 °F 10.4 °F 63% 30.22 in - SE 17.3 mph - N/A   Overcast
1:55 PM 19.4 °F 4.1 °F 10.4 °F 68% 30.22 in - SE 18.4 mph - N/A   Overcast
2:15 PM 19.4 °F 5.0 °F 10.4 °F 68% 30.22 in - SE 16.1 mph 20.7 mph N/A   Overcast
2:35 PM 19.4 °F 5.5 °F 12.2 °F 74% 30.22 in - SE 15.0 mph - N/A   Scattered Clouds
2:55 PM 21.2 °F 9.5 °F 12.2 °F 68% 30.22 in - SE 11.5 mph - N/A   Mostly Cloudy
3:15 PM 23.0 °F 11.1 °F 12.2 °F 63% 30.21 in - ESE 12.7 mph - N/A   Overcast
3:55 PM 21.2 °F 5.2 °F 14.0 °F 74% 30.20 in - SE 21.9 mph - N/A   Overcast
4:15 PM 21.2 °F 5.6 °F 14.0 °F 74% 30.20 in - SE 20.7 mph - N/A   Overcast
4:35 PM 21.2 °F 8.3 °F 12.2 °F 68% 30.21 in - SE 13.8 mph 24.2 mph N/A   Overcast
4:55 PM 21.2 °F 7.3 °F 14.0 °F 74% 30.20 in - SE 16.1 mph 21.9 mph N/A   Overcast
5:15 PM 21.2 °F 7.8 °F 14.0 °F 74% 30.20 in - SE 15.0 mph - N/A   Mostly Cloudy
5:35 PM 21.2 °F 10.9 °F 14.0 °F 74% 30.20 in - SSE 9.2 mph - N/A   Scattered Clouds
5:55 PM 23.0 °F 11.1 °F 12.2 °F 63% 30.21 in - South 12.7 mph - N/A   Clear
6:15 PM 23.0 °F 13.9 °F 12.2 °F 63% 30.21 in - SSE 8.1 mph - N/A   Clear
6:35 PM 23.0 °F 15.8 °F 14.0 °F 68% 30.21 in - SSE 5.8 mph - N/A   Scattered Clouds
6:55 PM 23.0 °F 13.9 °F 14.0 °F 68% 30.21 in - SSE 8.1 mph - N/A   Mostly Cloudy
7:15 PM 23.0 °F 14.7 °F 14.0 °F 68% 30.21 in - SSE 6.9 mph - N/A   Overcast
7:35 PM 23.0 °F 12.4 °F 14.0 °F 68% 30.21 in - SE 10.4 mph - N/A   Overcast
7:55 PM 24.8 °F 14.6 °F 14.0 °F 64% 30.21 in - SE 10.4 mph - N/A   Overcast
8:15 PM 23.0 °F 13.9 °F 14.0 °F 68% 30.21 in - SSE 8.1 mph - N/A   Overcast
8:35 PM 23.0 °F 13.1 °F 14.0 °F 68% 30.22 in - SSE 9.2 mph - N/A   Overcast
8:55 PM 23.0 °F 13.9 °F 14.0 °F 68% 30.22 in - SE 8.1 mph - N/A   Overcast
9:15 PM 23.0 °F 13.9 °F 15.8 °F 74% 30.21 in - SE 8.1 mph - N/A   Overcast
9:35 PM 24.8 °F 17.9 °F 15.8 °F 69% 30.21 in - SSE 5.8 mph - N/A   Overcast
9:55 PM 26.6 °F 19.1 °F 15.8 °F 64% 30.21 in - SSE 6.9 mph - N/A   Overcast
10:15 PM 24.8 °F 16.1 °F 15.8 °F 69% 30.21 in - SSE 8.1 mph - N/A   Overcast
10:35 PM 26.6 °F 19.1 °F 15.8 °F 64% 30.21 in - SSE 6.9 mph - N/A   Overcast
10:55 PM 28.4 °F 19.7 °F 14.0 °F 55% 30.21 in - South 9.2 mph - N/A   Overcast
11:15 PM 26.6 °F 19.1 °F 14.0 °F 59% 30.20 in - SSE 6.9 mph - N/A   Overcast
11:35 PM 26.6 °F 19.1 °F 15.8 °F 64% 30.20 in - SE 6.9 mph - N/A   Overcast
11:55 PM 26.6 °F 18.2 °F 17.6 °F 69% 30.20 in - South 8.1 mph - N/A   Overcast